sat.trackr.live / text

‹ back to catalog

STARLINK-3809

NORAD 52851 · 2022-062X

PAYLOAD ACTIVE UNKNOWN

§ Identity

Operator
Country
US
Launch date
2022-06-17
Launch site
AFETR
Launch vehicle
Mass (kg)
RCS (m²)

Purposes: comms

External: N2YO · Heavens-Above · Gunter

§ Orbital elements

Epoch: 2026-09-20T03:18:34.992000Z

Period
93.85 min
Inclination
53.1571°
Eccentricity
0.0001375
Mean motion
15.34387100 rev/d
Perigee alt
461.8 km
Apogee alt
463.7 km
Semi-major
6,840.9 km
B*
2.6457e-5
RAAN
215.3270°
Arg perigee
87.8998°
Mean anomaly
272.2162°
Rev number
23,549

§ Raw data

STARLINK-38091 52851U 22062X   26263.13790500  .00000517  00000+0  26457-4 0  99972 52851  53.1571 215.3270 0001375  87.8998 272.2162 15.34387100235497

JSON: /api/v1/satellites/52851 · /tle

For live sub-satellite position, see the globe view (requires WebGL).

§ Visibility from observer

Set your observer location to see the next 7 days of passes ≥ 10°. The values pass through the URL so the page stays shareable.

No JS? Fill the form by hand. The geolocation button needs JavaScript.